SCP
0 0 0 0 0 0 0 0 0 0 0 0 0 0 0 0 0 0 0 0 0 0 0 0 1 1 1 1 1 1 1 1 1 1 1 1 1 1 0 0 0 0 0
0 0 0 0 0 0 0 0 0 0 0 0 0 0 0 0 0 0 0 0 0 0 0 0 0 1 1 1 1 1 1 1 1 1 1 1 1 1 1 1 1 1 1
0 0 0 0 0 0 0 0 0 0 0 0 0 0 0 0 0 0 0 0 0 0 0 0 0 0 0 1 1 1 1 1 1 1 1 1 1 1 1 1 1 1 1
0 0 0 0 0 0 0 0 0 0 0 0 0 0 0 0 0 0 0 0 0 0 0 0 0 0 0 0 0 0 0 0 1 1 1 1 1 1 1 1 1 1 1
0 0 0 0 0 0 0 0 0 0 0 0 0 0 0 0 0 0 0 0 0 0 0 0 0 0 0 0 0 0 0 0 0 0 0 0 0 0 1 1 1 1 1
0 0 0 0 0 0 0 0 0 0 0 0 0 0 0 0 0 0 0 0 0 0 0 0 0 0 0 0 0 0 0 1 1 1 1 1 1 1 1 1 1 1 1
0 0 0 0 0 0 0 0 0 0 0 0 0 0 0 0 0 0 0 0 0 0 0 0 0 0 0 0 0 0 0 1 1 1 1 1 1 1 1 1 1 1 1
0 0 0 1 0 0 0 0 0 0 0 0 0 0 0 0 0 0 0 0 0 0 0 0 0 0 0 0 0 0 0 0 0 1 1 1 1 1 1 1 1 1 1
0 0 0 0 0 0 0 0 0 0 0 0 0 0 0 0 0 0 0 0 0 0 0 0 0 0 0 0 0 0 0 0 0 0 0 1 1 1 1 1 1 1 1
0 0 0 0 0 0 0 0 0 0 0 0 0 0 0 0 0 0 0 0 0 0 0 0 0 0 0 0 0 0 0 0 0 0 0 0 0 0 0 1 1 1 1
0 0 0 0 0 0 0 0 0 0 0 0 0 0 0 0 0 0 0 0 0 0 0 0 0 0 0 0 0 0 0 0 0 0 0 0 0 0 0 0 1 1 1
0 0 0 0 0 0 0 0 0 0 0 0 0 0 0 0 0 0 0 0 0 0 0 0 0 0 0 0 0 0 0 0 0 0 0 0 0 0 0 0 0 1 1
0 0 0 0 0 0 0 0 0 0 0 0 0 0 0 0 0 0 0 0 0 0 0 0 0 0 0 0 0 0 0 0 0 0 0 0 0 0 0 0 0 0 1
0 0 0 0 0 0 0 0 0 0 0 0 0 0 0 0 0 0 0 0 0 0 0 0 0 0 0 0 0 0 0 0 0 0 0 0 0 0 0 0 0 0 1
0 0 0 0 0 0 0 0 0 0 0 0 0 0 0 0 0 0 0 0 0 0 0 0 0 0 0 0 0 0 0 0 0 0 0 0 0 0 0 0 0 0 0
0 0 0 0 0 0 0 0 0 0 0 0 0 0 0 0 0 0 0 0 0 0 0 0 0 0 0 0 0 0 0 0 0 0 0 0 0 0 0 0 0 0 0
0 0 0 0 0 0 0 0 0 0 0 0 0 0 0 0 0 0 0 0 0 0 0 0 0 0 0 0 0 0 0 0 0 0 0 0 0 0 0 0 0 0 0
0 0 0 0 0 0 0 0 0 0 0 0 0 0 0 0 0 0 0 0 0 0 0 0 0 0 0 0 0 0 0 0 0 0 0 0 0 0 0 0 0 0 0
0 0 0 0 0 0 0 0 0 0 0 0 0 0 0 0 0 0 0 0 0 0 0 0 0 0 0 0 0 0 0 0 0 0 0 0 0 0 0 0 0 0 0
0 0 0 0 0 0 0 0 0 0 0 0 0 0 0 0 0 0 0 0 0 0 0 0 0 0 0 0 0 0 0 0 0 0 0 0 0 0 0 0 0 0 0
0 0 0 0 0 0 0 0 0 0 0 0 0 0 0 0 0 0 0 0 0 0 0 0 0 0 0 0 0 0 0 0 0 0 0 0 0 0 0 0 0 0 0
0 0 0 0 0 0 0 0 0 0 0 0 0 0 0 0 0 0 0 0 0 0 0 0 0 0 0 0 0 0 0 0 0 0 0 0 0 0 0 0 0 0 0
0 0 0 0 0 0 0 0 0 0 0 0 0 0 0 0 0 0 0 0 0 0 0 0 0 0 0 0 0 0 0 0 0 0 0 0 0 0 0 0 0 0 0
0 0 0 0 0 0 0 0 0 0 0 0 0 0 0 0 0 0 0 0 0 0 0 0 0 0 0 0 0 0 0 0 0 0 0 0 0 0 0 0 0 0 0
0 0 0 0 0 0 0 0 0 0 0 0 0 0 0 0 0 0 0 0 0 0 0 0 0 0 0 0 0 0 0 0 0 0 0 0 0 0 0 0 0 0 0
0 0 0 0 0 0 0 0 0 0 0 0 0 0 0 0 0 0 0 0 0 0 0 0 0 0 0 0 0 0 0 0 0 0 0 0 0 0 0 0 0 0 0
Wind_Speed
1 1 1 1 1 1 1 2 2 2 2 2 2 2 2 2 2 2 2 4 4 5 6 7 7 7 7 7 7 7 7 8 8 8 8 9 9 9 10 10 11 11 12
1 1 1 1 1 1 1 1 2 2 2 2 2 2 2 2 2 2 2 3 4 5 6 7 7 8 8 8 8 8 8 8 8 8 8 9 9 10 10 11 12 12 12
1 0 0 1 1 1 2 1 2 1 2 2 2 3 2 2 2 2 2 2 2 4 6 7 7 7 7 8 8 8 8 8 8 8 9 10 10 11 11 11 11 12 12
1 0 0 1 1 1 1 1 1 2 2 2 2 3 2 2 2 2 1 2 2 3 4 6 7 7 8 8 9 9 9 9 9 9 10 10 11 12 12 12 13 13 13
2 1 1 1 1 1 1 2 2 1 2 3 3 3 2 2 2 2 2 2 3 3 3 5 7 7 8 9 10 10 10 10 10 11 11 11 12 13 13 13 14 14 13
3 2 1 2 2 1 2 2 2 2 1 2 3 3 2 2 1 1 1 2 2 3 3 4 4 5 7 9 10 10 11 11 12 12 12 12 13 13 14 14 15 15 14
3 2 2 2 2 1 2 2 2 2 2 2 2 3 3 2 1 1 1 1 2 3 3 3 3 3 4 8 10 11 12 13 13 13 13 14 14 14 15 15 16 16 15
3 2 2 2 2 2 2 3 2 1 1 1 1 2 3 3 2 2 1 1 2 3 3 4 3 3 3 3 6 11 13 13 14 14 15 15 15 16 16 16 16 16 16
3 3 2 2 2 2 2 2 2 1 2 2 1 0 1 3 4 2 1 1 2 2 2 3 3 4 4 3 4 8 12 13 14 15 15 16 16 17 17 17 17 17 18
4 3 3 2 2 2 2 2 2 2 1 2 2 1 1 1 2 4 3 2 2 3 3 3 3 3 4 3 4 8 12 13 14 15 15 16 16 17 18 18 18 18 18
4 4 3 3 3 2 2 3 3 2 2 2 1 2 2 2 1 3 5 4 3 3 3 3 2 3 3 3 4 7 12 12 13 15 15 16 17 17 18 18 18 18 18
3 5 4 3 3 2 3 2 2 2 1 2 2 1 1 1 2 2 4 5 5 4 4 3 2 2 3 3 5 10 11 12 13 14 15 16 16 17 18 18 18 18 18
3 4 4 3 3 2 2 2 2 2 2 2 2 2 2 2 2 3 4 5 6 4 2 2 2 2 3 3 5 10 10 13 14 14 15 15 16 17 17 18 18 18 18
3 4 4 4 4 3 3 2 2 2 2 2 3 3 2 3 2 3 3 4 6 5 3 4 2 1 2 3 6 10 7 12 14 15 15 16 16 17 17 17 18 18 17
3 4 4 4 4 4 3 3 2 2 2 2 2 3 2 3 3 3 3 3 4 7 7 4 3 3 3 3 7 6 6 11 14 14 15 16 16 17 16 17 17 18 18
4 4 4 4 4 4 4 3 3 3 3 2 2 3 3 3 3 3 3 3 3 5 7 5 5 5 5 5 8 6 7 13 13 13 15 16 16 16 16 17 17 17 18
4 4 4 4 4 5 4 4 3 4 4 4 3 3 4 4 3 3 3 3 3 4 8 8 5 5 5 6 6 6 6 6 7 13 15 15 15 16 16 17 17 17 17
4 4 4 4 5 5 5 4 5 5 4 5 5 4 4 4 4 4 4 4 4 4 6 10 7 5 6 6 6 7 7 6 6 12 15 15 15 16 16 17 17 17 17
4 4 5 5 5 5 5 5 5 5 5 4 4 4 5 4 5 4 5 4 4 5 5 7 8 6 5 5 6 7 7 6 7 9 12 13 15 16 16 16 16 16 16
4 4 4 4 4 5 5 5 5 5 5 5 5 5 5 4 5 5 5 5 5 6 6 6 7 6 5 5 5 6 7 6 7 7 9 11 13 15 15 16 16 16 16
4 4 4 5 5 4 5 6 5 5 5 5 5 5 5 6 8 7 6 6 6 5 6 6 6 6 6 6 6 6 8 8 7 5 6 6 7 6 8 12 14 15 16
5 5 5 5 5 5 9 10 8 5 5 5 6 6 5 5 8 10 10 10 9 7 7 7 6 7 8 7 7 7 7 8 8 3 5 7 5 6 6 6 12 16 15
5 5 5 5 5 7 11 11 10 6 5 5 6 6 6 6 6 6 8 10 9 10 10 8 8 8 9 8 8 8 8 8 9 6 6 8 5 7 7 8 15 15 15
4 4 5 5 5 7 11 10 10 6 5 5 5 6 6 7 7 8 7 8 7 7 9 6 6 8 7 7 7 8 8 9 8 5 4 7 6 6 7 7 12 14 15
4 4 4 4 5 6 10 11 10 4 4 5 5 5 6 6 11 13 9 8 8 7 10 12 12 12 14 13 10 6 6 6 7 6 3 4 5 7 7 6 7 12 13
3 4 4 4 5 5 9 11 11 4 5 5 5 5 6 10 12 14 8 7 9 9 8 9 9 10 9 9 10 6 5 5 6 6 3 4 5 5 6 5 5 6 7
Wind_Direction
75 51 24 14 349 344 333 323 322 321 310 304 305 298 291 286 291 299 304 306 307 304 304 305 308 311 311 311 312 312 313 312 313 310 305 304 302 298 295 293 294 294 290
79 68 25 9 341 333 320 309 313 317 311 311 311 306 291 286 286 292 299 307 312 311 305 305 308 311 312 312 313 311 310 313 315 314 312 310 306 301 298 295 292 290 289
94 106 32 350 322 316 319 327 334 339 344 336 318 307 299 292 297 301 310 315 327 330 322 318 319 319 318 319 318 318 316 317 317 316 315 312 309 305 301 299 297 296 294
33 62 18 323 315 329 337 334 343 344 332 319 305 295 294 297 302 310 331 351 350 342 337 338 335 332 328 325 323 321 321 322 322 320 318 315 312 308 304 299 295 293 293
22 36 7 334 340 346 338 331 327 322 315 316 300 293 299 297 305 345 11 11 0 351 344 347 346 340 335 330 328 327 325 324 324 323 320 316 313 310 308 305 299 294 291
15 29 13 353 351 349 339 338 316 322 310 305 297 302 296 298 331 348 345 0 357 350 345 347 341 340 342 337 335 333 331 331 330 328 325 320 314 310 306 304 302 298 295
14 27 15 5 2 354 335 334 321 321 328 339 326 314 307 299 307 306 332 343 344 342 344 342 337 337 337 339 338 335 332 329 327 327 325 323 319 315 310 307 305 300 296
6 13 19 11 359 354 3 357 356 329 323 1 342 311 312 315 316 295 306 329 338 339 338 342 346 343 336 339 339 340 336 334 332 330 326 324 322 319 314 311 309 306 299
1 9 11 7 360 1 342 342 354 343 315 313 1 349 306 287 309 298 293 314 333 331 325 334 346 337 336 337 330 338 338 334 332 331 331 329 325 320 318 314 312 308 305
360 6 7 6 8 11 359 351 3 338 334 308 301 311 284 283 294 300 302 316 318 306 303 319 325 324 330 325 329 339 337 335 333 330 328 327 325 323 320 318 315 312 310
8 10 12 9 10 8 3 357 356 356 346 331 316 315 304 303 296 282 296 313 314 298 303 295 300 312 322 323 323 329 332 332 331 329 325 324 323 321 319 318 316 315 315
0 2 5 8 360 357 356 347 342 346 339 338 330 328 324 305 299 289 288 303 303 300 293 289 287 301 313 321 321 327 327 326 326 325 323 322 320 319 317 315 315 315 314
354 351 357 353 348 339 341 345 347 346 337 333 318 307 306 297 296 289 284 296 298 293 279 274 274 299 320 322 318 325 321 322 322 322 321 320 319 317 314 312 312 312 313
344 344 350 349 348 348 346 340 343 342 342 330 323 311 304 303 306 301 290 296 300 296 286 278 295 283 313 311 314 323 316 318 319 320 319 319 318 317 314 314 313 314 315
352 355 349 347 345 346 347 343 345 337 330 317 305 300 301 306 310 303 300 292 287 295 296 288 299 301 311 309 315 314 310 313 316 316 317 317 317 316 316 317 316 316 315
357 354 349 344 346 347 347 344 334 329 327 329 324 327 324 315 315 313 304 297 286 283 287 297 296 306 314 315 316 313 308 315 313 314 315 315 315 315 317 317 315 314 313
355 351 345 347 351 349 346 343 334 333 334 332 329 330 326 322 317 314 308 300 292 285 285 293 293 303 307 308 312 310 307 305 305 310 312 313 314 316 317 317 316 315 315
359 353 351 352 354 352 348 345 338 339 333 330 330 330 323 323 322 317 314 308 300 290 284 293 302 305 301 303 310 309 310 307 303 309 313 314 316 316 315 315 315 315 316
359 357 358 357 351 347 347 347 344 342 340 337 334 329 324 326 321 318 314 310 307 307 295 290 297 301 302 310 313 307 303 301 304 308 313 314 315 313 313 316 319 319 320
1 358 354 350 347 343 347 351 352 352 348 349 347 342 336 333 325 323 320 320 317 313 307 298 296 300 302 308 309 311 310 308 307 310 307 310 312 313 312 314 316 317 316
359 353 356 357 353 348 351 354 354 350 345 344 344 342 337 336 330 327 324 322 318 311 308 303 298 301 305 316 312 310 304 308 301 295 304 307 310 308 309 310 311 312 313
3 0 1 357 356 355 356 357 354 352 347 343 339 337 334 334 331 330 327 322 318 312 308 304 299 302 304 305 305 304 306 308 304 307 309 303 305 300 301 298 303 310 312
4 2 0 359 354 352 356 357 356 354 344 340 336 334 333 332 328 326 325 325 322 318 314 307 301 301 304 308 308 304 300 296 293 302 306 296 298 294 297 296 305 308 310
359 356 355 355 352 348 353 355 356 355 343 340 339 338 333 334 335 332 329 325 320 320 321 319 305 305 309 311 302 298 297 298 296 293 301 290 298 298 302 300 301 306 313
350 349 348 351 349 342 347 351 353 344 342 337 336 336 330 329 333 339 337 327 324 324 329 324 318 315 315 316 316 310 306 304 301 299 302 293 302 309 299 289 299 309 314
340 343 346 348 340 334 339 346 348 342 334 330 329 330 329 331 334 338 336 328 325 325 326 325 323 320 317 314 317 308 298 293 298 294 296 308 300 315 304 293 301 309 309